Location: Newark
(34.3481°N, 134.0494°E)
Time: 14:49:51
(UTC+00:00)

Vanguard 3 - Pass Details

Date: 01 February 2020
Orbit: 508 x 3263 km, 33.3° (Epoch: 22 February)

Event Time Altitude Azimuth Distance (km) Brightness Sun altitude
Rises 14:29:15 0° 282° (WNW) 6,845 12.1 -69.7°
Reaches altitude 10° 14:36:28 10° 266° (W) 5,369 11.3 -70.5°
Enters shadow 14:37:26 11° 263° (W) 5,184 11.2 -70.6°
Maximum altitude 14:44:44 17° 233° (SW) 4,087 - -71.3°
Drops below altitude 10° 14:51:09 10° 197° (SSW) 3,974 - -71.8°
Sets 14:55:19 0° 177° (S) 4,470 - -72.1°
